Time,TemperatureF,DewpointF,PressureIn,WindDirection,WindDirectionDegrees,WindSpeedMPH,WindSpeedGustMPH,Humidity,HourlyPrecipIn,Conditions,Clouds,dailyrainin,SoftwareType,DateUTC
2013-11-13 00:02:00,55.0,53.1,30.26,NNW,338,0.0,3.0,93,0.00,,,0.00,meteohub,2013-11-13 08:02:00,
2013-11-13 00:07:00,55.0,53.1,30.26,North,9,2.0,2.0,93,0.00,,,0.00,meteohub,2013-11-13 08:07:00,
2013-11-13 00:12:00,55.0,53.1,30.26,WNW,295,0.0,3.0,93,0.00,,,0.00,meteohub,2013-11-13 08:12:00,
2013-11-13 00:17:00,55.0,53.1,30.25,NNW,336,1.0,3.0,93,0.00,,,0.00,meteohub,2013-11-13 08:17:00,
2013-11-13 00:22:00,54.9,52.9,30.25,NW,314,0.0,3.0,93,0.00,,,0.00,meteohub,2013-11-13 08:22:00,
2013-11-13 00:27:00,54.9,52.9,30.25,North,356,1.0,3.0,93,0.00,,,0.00,meteohub,2013-11-13 08:27:00,
2013-11-13 00:32:00,54.9,52.9,30.26,North,6,0.0,3.0,93,0.00,,,0.00,meteohub,2013-11-13 08:32:00,
2013-11-13 00:37:00,54.9,52.9,30.26,NNE,21,0.0,3.0,93,0.00,,,0.00,meteohub,2013-11-13 08:37:00,
2013-11-13 00:42:00,54.9,52.9,30.25,NNW,334,1.0,3.0,93,0.00,,,0.00,meteohub,2013-11-13 08:42:00,
2013-11-13 00:47:00,55.0,53.1,30.26,ESE,108,2.0,2.0,93,0.00,,,0.00,meteohub,2013-11-13 08:47:00,
2013-11-13 00:52:00,55.0,53.1,30.25,ESE,105,0.0,4.0,93,0.00,,,0.00,meteohub,2013-11-13 08:52:00,
2013-11-13 00:57:00,55.0,53.1,30.25,WSW,258,1.0,4.0,93,0.00,,,0.00,meteohub,2013-11-13 08:57:00,
2013-11-13 01:02:00,55.2,53.2,30.25,NW,314,1.0,4.0,93,0.00,,,0.00,meteohub,2013-11-13 09:02:00,
2013-11-13 01:07:00,55.0,53.1,30.25,NNW,348,1.0,3.0,93,0.00,,,0.00,meteohub,2013-11-13 09:07:00,
2013-11-13 01:12:00,55.0,53.1,30.25,NNW,342,0.0,3.0,93,0.00,,,0.00,meteohub,2013-11-13 09:12:00,
2013-11-13 01:17:00,55.0,53.1,30.25,NE,41,0.0,2.0,93,0.00,,,0.00,meteohub,2013-11-13 09:17:00,
2013-11-13 01:22:00,55.0,53.1,30.25,NW,316,1.0,4.0,93,0.00,,,0.00,meteohub,2013-11-13 09:22:00,
2013-11-13 01:27:00,55.0,53.1,30.25,West,277,0.0,4.0,93,0.00,,,0.00,meteohub,2013-11-13 09:27:00,
2013-11-13 01:32:00,55.0,53.1,30.25,NNW,329,0.0,4.0,93,0.00,,,0.00,meteohub,2013-11-13 09:32:00,
2013-11-13 01:37:00,55.0,53.4,30.25,North,6,1.0,3.0,94,0.00,,,0.00,meteohub,2013-11-13 09:37:00,
2013-11-13 01:42:00,55.0,53.1,30.25,WNW,300,0.0,3.0,93,0.00,,,0.00,meteohub,2013-11-13 09:42:00,
2013-11-13 01:47:00,55.0,53.1,30.25,South,179,1.0,3.0,93,0.00,,,0.00,meteohub,2013-11-13 09:47:00,
2013-11-13 01:52:00,54.9,52.9,30.25,SSE,148,0.0,4.0,93,0.00,,,0.00,meteohub,2013-11-13 09:52:00,
2013-11-13 01:57:00,54.9,52.9,30.25,South,176,0.0,4.0,93,0.00,,,0.00,meteohub,2013-11-13 09:57:00,
2013-11-13 02:02:00,54.7,52.7,30.25,South,175,0.0,2.0,93,0.00,,,0.00,meteohub,2013-11-13 10:02:00,
2013-11-13 02:07:00,54.7,53.1,30.25,South,176,0.0,0.0,94,0.00,,,0.00,meteohub,2013-11-13 10:07:00,
2013-11-13 02:12:00,54.5,52.9,30.25,South,175,0.0,0.0,94,0.00,,,0.00,meteohub,2013-11-13 10:12:00,
2013-11-13 02:17:00,54.3,52.3,30.25,South,175,0.0,0.0,93,0.00,,,0.00,meteohub,2013-11-13 10:17:00,
2013-11-13 02:22:00,54.0,52.0,30.25,South,176,0.0,0.0,93,0.00,,,0.00,meteohub,2013-11-13 10:22:00,
2013-11-13 02:27:00,53.8,51.8,30.25,WSW,252,0.0,0.0,93,0.00,,,0.00,meteohub,2013-11-13 10:27:00,
2013-11-13 02:32:00,53.6,51.6,30.25,WNW,302,0.0,1.0,93,0.00,,,0.00,meteohub,2013-11-13 10:32:00,
2013-11-13 02:37:00,53.4,51.8,30.24,WNW,302,0.0,1.0,94,0.00,,,0.00,meteohub,2013-11-13 10:37:00,
2013-11-13 02:42:00,53.2,51.6,30.24,WNW,302,0.0,1.0,94,0.00,,,0.00,meteohub,2013-11-13 10:42:00,
2013-11-13 02:47:00,53.1,51.4,30.24,WNW,300,0.0,0.0,94,0.00,,,0.00,meteohub,2013-11-13 10:47:00,
2013-11-13 02:52:00,53.1,51.4,30.23,WNW,302,0.0,0.0,94,0.00,,,0.00,meteohub,2013-11-13 10:52:00,
2013-11-13 02:58:00,52.9,51.3,30.23,WNW,301,0.0,0.0,94,0.00,,,0.00,meteohub,2013-11-13 10:58:00,
2013-11-13 03:03:00,52.9,51.3,30.23,WNW,301,0.0,1.0,94,0.00,,,0.00,meteohub,2013-11-13 11:03:00,
2013-11-13 03:08:00,52.9,51.3,30.23,NNW,330,0.0,1.0,94,0.00,,,0.00,meteohub,2013-11-13 11:08:00,
2013-11-13 03:13:00,52.7,51.1,30.23,NNW,328,0.0,1.0,94,0.00,,,0.00,meteohub,2013-11-13 11:13:00,
2013-11-13 03:18:00,52.5,50.9,30.23,NW,326,0.0,1.0,94,0.00,,,0.00,meteohub,2013-11-13 11:18:00,
2013-11-13 03:23:00,52.3,50.7,30.22,NW,326,0.0,1.0,94,0.00,,,0.00,meteohub,2013-11-13 11:23:00,
2013-11-13 03:28:00,52.2,50.5,30.22,NW,326,0.0,1.0,94,0.00,,,0.00,meteohub,2013-11-13 11:28:00,
2013-11-13 03:33:00,51.8,50.2,30.23,NW,326,0.0,0.0,94,0.00,,,0.00,meteohub,2013-11-13 11:33:00,
2013-11-13 03:38:00,51.8,50.4,30.23,NW,326,0.0,0.0,95,0.00,,,0.00,meteohub,2013-11-13 11:38:00,
2013-11-13 03:43:00,51.6,50.0,30.23,NW,326,0.0,1.0,94,0.00,,,0.00,meteohub,2013-11-13 11:43:00,
2013-11-13 03:49:00,51.4,49.8,30.23,NW,326,0.0,1.0,94,0.00,,,0.00,meteohub,2013-11-13 11:49:00,
2013-11-13 03:54:00,51.4,50.0,30.22,NW,326,0.0,1.0,95,0.00,,,0.00,meteohub,2013-11-13 11:54:00,
2013-11-13 03:59:00,51.1,49.5,30.22,NW,326,0.0,0.0,94,0.00,,,0.00,meteohub,2013-11-13 11:59:00,
2013-11-13 04:04:00,51.1,49.6,30.22,NW,326,0.0,0.0,95,0.00,,,0.00,meteohub,2013-11-13 12:04:00,
2013-11-13 04:09:00,51.1,49.6,30.22,NW,326,0.0,0.0,95,0.00,,,0.00,meteohub,2013-11-13 12:09:00,
2013-11-13 04:14:00,50.9,49.5,30.22,NW,326,0.0,0.0,95,0.00,,,0.00,meteohub,2013-11-13 12:14:00,
2013-11-13 04:19:00,50.7,49.3,30.22,NW,326,0.0,0.0,95,0.00,,,0.00,meteohub,2013-11-13 12:19:00,
2013-11-13 04:24:00,51.1,50.0,30.22,NW,326,0.0,0.0,96,0.00,,,0.00,meteohub,2013-11-13 12:24:00,
2013-11-13 04:29:00,51.3,49.8,30.22,NW,326,0.0,0.0,95,0.00,,,0.00,meteohub,2013-11-13 12:29:00,
2013-11-13 04:34:00,51.1,49.6,30.23,NW,326,0.0,0.0,95,0.00,,,0.00,meteohub,2013-11-13 12:34:00,
2013-11-13 04:39:00,51.1,49.6,30.23,NW,326,0.0,0.0,95,0.00,,,0.00,meteohub,2013-11-13 12:39:00,
2013-11-13 04:45:00,50.7,49.3,30.23,NW,326,0.0,0.0,95,0.00,,,0.00,meteohub,2013-11-13 12:45:00,
2013-11-13 04:50:00,50.9,49.8,30.23,NW,326,0.0,0.0,96,0.00,,,0.00,meteohub,2013-11-13 12:50:00,
2013-11-13 04:55:00,51.1,49.6,30.23,NW,326,0.0,0.0,95,0.00,,,0.00,meteohub,2013-11-13 12:55:00,
2013-11-13 05:00:00,50.9,49.5,30.22,NW,326,0.0,0.0,95,0.00,,,0.00,meteohub,2013-11-13 13:00:00,
2013-11-13 05:05:00,51.3,50.2,30.22,NW,326,0.0,0.0,96,0.00,,,0.00,meteohub,2013-11-13 13:05:00,
2013-11-13 05:10:00,51.1,49.6,30.22,NW,326,0.0,0.0,95,0.00,,,0.00,meteohub,2013-11-13 13:10:00,
2013-11-13 05:15:00,50.7,49.3,30.23,NW,326,0.0,0.0,95,0.00,,,0.00,meteohub,2013-11-13 13:15:00,
2013-11-13 05:20:00,50.4,48.9,30.22,NW,326,0.0,0.0,95,0.00,,,0.00,meteohub,2013-11-13 13:20:00,
2013-11-13 05:25:00,50.4,49.3,30.22,NW,326,0.0,0.0,96,0.00,,,0.00,meteohub,2013-11-13 13:25:00,
2013-11-13 05:30:00,50.5,49.5,30.22,NW,326,0.0,0.0,96,0.00,,,0.00,meteohub,2013-11-13 13:30:00,
2013-11-13 05:35:00,50.4,48.9,30.22,NW,326,0.0,0.0,95,0.00,,,0.00,meteohub,2013-11-13 13:35:00,
2013-11-13 05:41:00,50.2,48.7,30.22,NW,326,0.0,0.0,95,0.00,,,0.00,meteohub,2013-11-13 13:41:00,
2013-11-13 05:46:00,50.4,49.3,30.22,NW,326,0.0,0.0,96,0.00,,,0.00,meteohub,2013-11-13 13:46:00,
2013-11-13 05:51:00,50.4,49.3,30.21,NW,326,0.0,0.0,96,0.00,,,0.00,meteohub,2013-11-13 13:51:00,
2013-11-13 05:56:00,50.2,48.7,30.21,NW,326,0.0,0.0,95,0.00,,,0.00,meteohub,2013-11-13 13:56:00,
2013-11-13 06:01:00,50.2,49.1,30.21,NW,326,0.0,0.0,96,0.00,,,0.00,meteohub,2013-11-13 14:01:00,
2013-11-13 06:06:00,50.5,49.5,30.21,NW,326,0.0,1.0,96,0.00,,,0.00,meteohub,2013-11-13 14:06:00,
2013-11-13 06:11:00,50.5,49.5,30.22,NW,326,0.0,1.0,96,0.00,,,0.00,meteohub,2013-11-13 14:11:00,
2013-11-13 06:16:00,50.5,49.5,30.22,NW,326,0.0,1.0,96,0.00,,,0.00,meteohub,2013-11-13 14:16:00,
2013-11-13 06:21:00,50.4,49.3,30.22,NW,326,0.0,0.0,96,0.00,,,0.00,meteohub,2013-11-13 14:21:00,
2013-11-13 06:26:00,50.4,49.3,30.22,NW,326,0.0,0.0,96,0.00,,,0.00,meteohub,2013-11-13 14:26:00,
2013-11-13 06:31:00,50.2,48.7,30.22,NW,326,0.0,0.0,95,0.00,,,0.00,meteohub,2013-11-13 14:31:00,
2013-11-13 06:37:00,50.2,49.1,30.22,NW,325,0.0,0.0,96,0.00,,,0.00,meteohub,2013-11-13 14:37:00,
2013-11-13 06:42:00,50.0,48.9,30.22,NW,325,0.0,0.0,96,0.00,,,0.00,meteohub,2013-11-13 14:42:00,
2013-11-13 06:47:00,49.6,48.6,30.22,NW,325,0.0,0.0,96,0.00,,,0.00,meteohub,2013-11-13 14:47:00,
2013-11-13 06:52:00,49.8,48.7,30.22,NW,323,0.0,0.0,96,0.00,,,0.00,meteohub,2013-11-13 14:52:00,
2013-11-13 06:57:00,50.2,49.3,30.23,NW,323,0.0,0.0,97,0.00,,,0.00,meteohub,2013-11-13 14:57:00,
2013-11-13 07:02:00,50.4,49.5,30.23,NW,319,0.0,0.0,97,0.00,,,0.00,meteohub,2013-11-13 15:02:00,
2013-11-13 07:07:00,50.5,49.5,30.23,NW,316,0.0,0.0,96,0.00,,,0.00,meteohub,2013-11-13 15:07:00,
2013-11-13 07:12:00,50.7,49.6,30.24,NW,316,0.0,0.0,96,0.00,,,0.00,meteohub,2013-11-13 15:12:00,
2013-11-13 07:17:00,50.9,49.8,30.24,NW,316,0.0,0.0,96,0.00,,,0.00,meteohub,2013-11-13 15:17:00,
2013-11-13 07:22:00,51.3,50.2,30.24,NW,316,0.0,0.0,96,0.00,,,0.00,meteohub,2013-11-13 15:22:00,
2013-11-13 07:27:00,51.3,50.2,30.24,NW,316,0.0,0.0,96,0.00,,,0.00,meteohub,2013-11-13 15:27:00,
2013-11-13 07:32:00,51.4,50.4,30.24,NW,314,0.0,0.0,96,0.00,,,0.00,meteohub,2013-11-13 15:32:00,
2013-11-13 07:37:00,51.6,50.5,30.25,NW,314,0.0,0.0,96,0.00,,,0.00,meteohub,2013-11-13 15:37:00,
2013-11-13 07:42:00,51.8,50.7,30.25,NW,314,0.0,0.0,96,0.00,,,0.00,meteohub,2013-11-13 15:42:00,
2013-11-13 07:47:00,52.2,51.1,30.25,NW,312,0.0,0.0,96,0.00,,,0.00,meteohub,2013-11-13 15:47:00,
2013-11-13 07:52:00,52.3,51.3,30.25,NW,311,0.0,0.0,96,0.00,,,0.00,meteohub,2013-11-13 15:52:00,
2013-11-13 07:57:00,52.9,52.0,30.26,NW,314,0.0,0.0,97,0.01,,,0.01,meteohub,2013-11-13 15:57:00,
2013-11-13 08:02:00,53.4,52.5,30.26,NW,314,0.0,0.0,97,0.01,,,0.01,meteohub,2013-11-13 16:02:00,
2013-11-13 08:07:00,53.8,52.9,30.26,NW,315,0.0,0.0,97,0.01,,,0.01,meteohub,2013-11-13 16:07:00,
2013-11-13 08:12:00,54.1,53.2,30.25,NW,314,0.0,0.0,97,0.01,,,0.01,meteohub,2013-11-13 16:12:00,
2013-11-13 08:17:00,54.7,53.8,30.25,NW,314,0.0,0.0,97,0.01,,,0.01,meteohub,2013-11-13 16:17:00,
2013-11-13 08:22:00,55.2,54.3,30.26,NW,314,0.0,0.0,97,0.01,,,0.01,meteohub,2013-11-13 16:22:00,
2013-11-13 08:27:00,55.6,54.5,30.25,NW,314,0.0,0.0,96,0.01,,,0.01,meteohub,2013-11-13 16:27:00,
2013-11-13 08:32:00,55.9,54.9,30.25,SSW,197,0.0,0.0,96,0.01,,,0.01,meteohub,2013-11-13 16:32:00,
2013-11-13 08:37:00,56.1,55.0,30.25,SSW,195,0.0,0.0,96,0.01,,,0.01,meteohub,2013-11-13 16:37:00,
2013-11-13 08:42:00,56.5,55.4,30.26,SSW,195,0.0,0.0,96,0.01,,,0.01,meteohub,2013-11-13 16:42:00,
2013-11-13 08:47:00,56.8,55.8,30.25,SSW,194,0.0,0.0,96,0.01,,,0.01,meteohub,2013-11-13 16:47:00,
2013-11-13 08:52:00,57.0,55.9,30.26,ENE,66,0.0,0.0,96,0.00,,,0.01,meteohub,2013-11-13 16:52:00,
2013-11-13 08:57:00,57.0,55.2,30.25,NNE,13,2.0,2.0,94,0.00,,,0.01,meteohub,2013-11-13 16:57:00,
2013-11-13 09:02:00,56.8,55.2,30.25,NNE,25,1.0,3.0,94,0.00,,,0.01,meteohub,2013-11-13 17:02:00,
2013-11-13 09:07:00,56.8,55.2,30.25,NNE,19,0.0,3.0,94,0.00,,,0.01,meteohub,2013-11-13 17:07:00,
2013-11-13 09:12:00,56.8,55.2,30.25,NNE,15,0.0,3.0,94,0.00,,,0.01,meteohub,2013-11-13 17:12:00,
2013-11-13 09:17:00,57.4,55.6,30.25,ENE,68,0.0,3.0,94,0.00,,,0.01,meteohub,2013-11-13 17:17:00,
2013-11-13 09:22:00,57.6,55.6,30.25,NNE,19,0.0,2.0,93,0.00,,,0.01,meteohub,2013-11-13 17:22:00,
2013-11-13 09:28:00,57.7,55.8,30.25,NNE,20,0.0,2.0,93,0.00,,,0.01,meteohub,2013-11-13 17:28:00,
2013-11-13 09:33:00,57.7,55.4,30.25,NNW,330,0.0,2.0,92,0.00,,,0.01,meteohub,2013-11-13 17:33:00,
2013-11-13 09:38:00,58.3,55.9,30.24,NNE,18,1.0,2.0,92,0.00,,,0.01,meteohub,2013-11-13 17:38:00,
2013-11-13 09:43:00,58.8,56.5,30.25,NE,34,1.0,1.0,92,0.00,,,0.01,meteohub,2013-11-13 17:43:00,
2013-11-13 09:48:00,59.0,56.1,30.25,NNE,19,0.0,1.0,90,0.00,,,0.01,meteohub,2013-11-13 17:48:00,
2013-11-13 09:53:00,59.2,56.3,30.25,North,356,2.0,2.0,90,0.00,,,0.01,meteohub,2013-11-13 17:53:00,
2013-11-13 09:58:00,59.5,56.3,30.25,North,352,1.0,2.0,89,0.00,,,0.01,meteohub,2013-11-13 17:58:00,
2013-11-13 10:04:00,59.9,56.3,30.25,North,359,1.0,2.0,88,0.00,,,0.01,meteohub,2013-11-13 18:04:00,
2013-11-13 10:09:00,60.4,56.8,30.25,NNE,33,2.0,2.0,88,0.00,,,0.01,meteohub,2013-11-13 18:09:00,
2013-11-13 10:14:00,60.6,56.1,30.25,NNE,15,1.0,2.0,85,0.00,,,0.01,meteohub,2013-11-13 18:14:00,
2013-11-13 10:19:00,60.6,56.1,30.24,NNW,330,1.0,2.0,85,0.00,,,0.01,meteohub,2013-11-13 18:19:00,
2013-11-13 10:25:00,60.4,55.2,30.24,NNW,330,1.0,3.0,83,0.00,,,0.01,meteohub,2013-11-13 18:25:00,
2013-11-13 10:30:00,60.3,55.0,30.24,NW,318,0.0,3.0,83,0.00,,,0.01,meteohub,2013-11-13 18:30:00,
2013-11-13 10:35:00,60.4,55.6,30.24,NNW,342,0.0,3.0,84,0.00,,,0.01,meteohub,2013-11-13 18:35:00,
2013-11-13 10:40:00,61.2,56.3,30.24,ENE,60,0.0,3.0,84,0.00,,,0.01,meteohub,2013-11-13 18:40:00,
2013-11-13 10:45:00,62.2,57.0,30.23,NE,46,0.0,3.0,83,0.00,,,0.01,meteohub,2013-11-13 18:45:00,
2013-11-13 10:50:00,63.3,57.7,30.23,North,1,2.0,3.0,82,0.00,,,0.01,meteohub,2013-11-13 18:50:00,
2013-11-13 10:55:00,63.3,56.7,30.23,NNW,338,0.0,3.0,79,0.00,,,0.01,meteohub,2013-11-13 18:55:00,
2013-11-13 11:00:00,63.3,56.7,30.23,NNW,341,1.0,4.0,79,0.00,,,0.01,meteohub,2013-11-13 19:00:00,
2013-11-13 11:06:00,63.7,56.7,30.22,East,98,0.0,4.0,78,0.00,,,0.01,meteohub,2013-11-13 19:06:00,
2013-11-13 11:11:00,64.0,56.7,30.22,North,356,2.0,4.0,77,0.00,,,0.01,meteohub,2013-11-13 19:11:00,
2013-11-13 11:16:00,64.8,57.4,30.21,North,9,1.0,2.0,77,0.00,,,0.01,meteohub,2013-11-13 19:16:00,
2013-11-13 11:21:00,65.8,57.7,30.21,North,356,1.0,2.0,75,0.00,,,0.01,meteohub,2013-11-13 19:21:00,
2013-11-13 11:26:00,66.2,57.2,30.21,NW,304,1.0,2.0,73,0.00,,,0.01,meteohub,2013-11-13 19:26:00,
2013-11-13 11:31:00,66.0,57.2,30.20,NNW,336,0.0,2.0,73,0.00,,,0.01,meteohub,2013-11-13 19:31:00,
2013-11-13 11:36:00,66.0,56.7,30.20,NNW,333,0.0,2.0,72,0.00,,,0.01,meteohub,2013-11-13 19:36:00,
2013-11-13 11:41:00,66.6,58.1,30.20,WNW,302,1.0,2.0,74,0.00,,,0.01,meteohub,2013-11-13 19:41:00,
2013-11-13 11:46:00,67.3,58.3,30.20,NNE,12,0.0,3.0,73,0.00,,,0.01,meteohub,2013-11-13 19:46:00,
2013-11-13 11:52:00,68.2,57.6,30.20,ENE,60,2.0,3.0,69,0.00,,,0.01,meteohub,2013-11-13 19:52:00,
2013-11-13 11:57:00,68.7,57.7,30.20,WNW,283,0.0,4.0,68,0.00,,,0.01,meteohub,2013-11-13 19:57:00,
2013-11-13 12:02:00,68.9,57.0,30.20,NNE,15,3.0,4.0,66,0.00,,,0.01,meteohub,2013-11-13 20:02:00,
2013-11-13 12:07:00,68.2,55.9,30.19,North,9,3.0,5.0,65,0.00,,,0.01,meteohub,2013-11-13 20:07:00,
2013-11-13 12:12:00,67.6,55.9,30.19,North,6,4.0,7.0,66,0.00,,,0.01,meteohub,2013-11-13 20:12:00,
2013-11-13 12:17:00,67.3,55.6,30.19,NW,319,3.0,7.0,66,0.00,,,0.01,meteohub,2013-11-13 20:17:00,
2013-11-13 12:22:00,66.9,55.2,30.18,North,352,4.0,7.0,66,0.00,,,0.01,meteohub,2013-11-13 20:22:00,
2013-11-13 12:27:00,65.8,54.5,30.18,North,352,5.0,8.0,67,0.00,,,0.01,meteohub,2013-11-13 20:27:00,
2013-11-13 12:32:00,64.9,54.5,30.18,North,1,3.0,9.0,69,0.00,,,0.01,meteohub,2013-11-13 20:32:00,
2013-11-13 12:37:00,64.2,54.7,30.18,North,356,3.0,9.0,71,0.00,,,0.01,meteohub,2013-11-13 20:37:00,
2013-11-13 12:42:00,64.0,54.5,30.18,North,7,6.0,9.0,71,0.00,,,0.01,meteohub,2013-11-13 20:42:00,
2013-11-13 12:47:00,63.3,54.5,30.18,NNE,15,8.0,8.0,73,0.00,,,0.01,meteohub,2013-11-13 20:47:00,
2013-11-13 12:52:00,62.4,53.6,30.18,NNW,338,4.0,10.0,73,0.00,,,0.01,meteohub,2013-11-13 20:52:00,
2013-11-13 12:57:00,61.7,53.2,30.18,North,9,5.0,10.0,74,0.00,,,0.01,meteohub,2013-11-13 20:57:00,
2013-11-13 13:02:00,61.0,53.4,30.18,NNE,13,4.0,10.0,76,0.00,,,0.01,meteohub,2013-11-13 21:02:00,
2013-11-13 13:07:00,60.4,53.2,30.17,NE,49,3.0,10.0,77,0.00,,,0.01,meteohub,2013-11-13 21:07:00,
2013-11-13 13:12:00,60.3,53.4,30.17,NNW,338,5.0,9.0,78,0.00,,,0.01,meteohub,2013-11-13 21:12:00,
2013-11-13 13:17:00,59.5,53.1,30.17,NW,324,5.0,11.0,79,0.00,,,0.01,meteohub,2013-11-13 21:17:00,
2013-11-13 13:22:00,59.2,53.1,30.16,NNW,345,5.0,11.0,80,0.00,,,0.01,meteohub,2013-11-13 21:22:00,
2013-11-13 13:27:00,58.6,53.2,30.16,North,4,8.0,11.0,82,0.00,,,0.01,meteohub,2013-11-13 21:27:00,
2013-11-13 13:32:00,58.3,52.9,30.16,North,349,6.0,10.0,82,0.00,,,0.01,meteohub,2013-11-13 21:32:00,
2013-11-13 13:37:00,58.1,52.9,30.16,NNW,344,3.0,10.0,83,0.00,,,0.01,meteohub,2013-11-13 21:37:00,
2013-11-13 13:42:00,58.1,52.9,30.15,NNW,332,4.0,13.0,83,0.00,,,0.01,meteohub,2013-11-13 21:42:00,
2013-11-13 13:47:00,58.1,52.9,30.16,NNW,347,2.0,13.0,83,0.00,,,0.01,meteohub,2013-11-13 21:47:00,
2013-11-13 13:52:00,58.3,53.4,30.16,NW,325,3.0,13.0,84,0.00,,,0.01,meteohub,2013-11-13 21:52:00,
2013-11-13 13:57:00,58.5,53.2,30.16,NNE,22,1.0,9.0,83,0.00,,,0.01,meteohub,2013-11-13 21:57:00,
2013-11-13 14:02:00,58.5,53.6,30.15,NNW,347,1.0,8.0,84,0.00,,,0.01,meteohub,2013-11-13 22:02:00,
2013-11-13 14:07:00,58.6,53.8,30.16,North,6,5.0,7.0,84,0.00,,,0.01,meteohub,2013-11-13 22:07:00,
2013-11-13 14:12:00,58.5,53.2,30.16,NNW,335,7.0,9.0,83,0.00,,,0.01,meteohub,2013-11-13 22:12:00,
2013-11-13 14:17:00,57.7,52.7,30.16,NNE,23,1.0,10.0,83,0.00,,,0.01,meteohub,2013-11-13 22:17:00,
2013-11-13 14:22:00,57.4,52.9,30.16,WNW,297,1.0,10.0,85,0.00,,,0.01,meteohub,2013-11-13 22:22:00,
2013-11-13 14:27:00,57.0,52.9,30.16,ENE,72,3.0,10.0,86,0.00,,,0.01,meteohub,2013-11-13 22:27:00,
2013-11-13 14:32:00,57.0,52.9,30.15,North,9,2.0,8.0,86,0.00,,,0.01,meteohub,2013-11-13 22:32:00,
2013-11-13 14:37:00,57.0,53.2,30.15,North,5,0.0,8.0,87,0.00,,,0.01,meteohub,2013-11-13 22:37:00,
2013-11-13 14:42:00,56.8,53.1,30.14,SSE,148,1.0,8.0,87,0.00,,,0.01,meteohub,2013-11-13 22:42:00,
2013-11-13 14:47:00,56.8,53.2,30.14,NNE,13,2.0,9.0,88,0.00,,,0.01,meteohub,2013-11-13 22:47:00,
2013-11-13 14:52:00,56.8,53.1,30.14,East,100,0.0,9.0,87,0.00,,,0.01,meteohub,2013-11-13 22:52:00,
2013-11-13 14:57:00,56.8,53.1,30.14,NE,34,0.0,5.0,87,0.00,,,0.01,meteohub,2013-11-13 22:57:00,
2013-11-13 15:03:00,56.7,53.1,30.14,NNW,345,0.0,7.0,88,0.00,,,0.01,meteohub,2013-11-13 23:03:00,
2013-11-13 15:08:00,56.7,53.1,30.14,NNE,13,0.0,7.0,88,0.00,,,0.01,meteohub,2013-11-13 23:08:00,
2013-11-13 15:13:00,56.8,53.2,30.14,ENE,68,1.0,7.0,88,0.00,,,0.01,meteohub,2013-11-13 23:13:00,
2013-11-13 15:18:00,56.7,52.9,30.14,NW,324,0.0,5.0,87,0.00,,,0.01,meteohub,2013-11-13 23:18:00,
2013-11-13 15:23:00,56.5,52.9,30.14,NNW,338,0.0,5.0,88,0.00,,,0.01,meteohub,2013-11-13 23:23:00,
2013-11-13 15:28:00,56.3,52.9,30.14,NNW,340,0.0,6.0,88,0.00,,,0.01,meteohub,2013-11-13 23:28:00,
2013-11-13 15:33:00,55.8,52.3,30.14,SE,143,0.0,9.0,88,0.00,,,0.01,meteohub,2013-11-13 23:33:00,
2013-11-13 15:38:00,55.8,52.5,30.14,WNW,297,0.0,9.0,89,0.00,,,0.01,meteohub,2013-11-13 23:38:00,
2013-11-13 15:43:00,55.6,52.7,30.14,NNW,331,2.0,9.0,90,0.00,,,0.01,meteohub,2013-11-13 23:43:00,
2013-11-13 15:49:00,55.2,52.7,30.14,NE,35,3.0,7.0,91,0.00,,,0.01,meteohub,2013-11-13 23:49:00,
2013-11-13 15:54:00,55.2,52.7,30.14,NNW,347,2.0,4.0,91,0.00,,,0.01,meteohub,2013-11-13 23:54:00,
2013-11-13 15:59:00,55.2,52.7,30.14,North,356,1.0,5.0,91,0.00,,,0.01,meteohub,2013-11-13 23:59:00,
2013-11-13 16:04:00,55.0,52.5,30.14,NNE,13,3.0,5.0,91,0.00,,,0.01,meteohub,2013-11-14 00:04:00,
2013-11-13 16:09:00,54.9,52.3,30.14,NNW,342,2.0,6.0,91,0.00,,,0.01,meteohub,2013-11-14 00:09:00,
2013-11-13 16:14:00,54.9,52.5,30.13,NNE,25,2.0,7.0,92,0.00,,,0.01,meteohub,2013-11-14 00:14:00,
2013-11-13 16:19:00,54.7,52.3,30.13,NW,314,2.0,7.0,92,0.00,,,0.01,meteohub,2013-11-14 00:19:00,
2013-11-13 16:24:00,54.7,52.7,30.13,SW,221,0.0,7.0,93,0.00,,,0.01,meteohub,2013-11-14 00:24:00,
2013-11-13 16:30:00,54.5,52.5,30.13,NNW,347,4.0,7.0,93,0.00,,,0.01,meteohub,2013-11-14 00:30:00,
2013-11-13 16:35:00,54.3,52.3,30.12,NE,39,3.0,8.0,93,0.00,,,0.01,meteohub,2013-11-14 00:35:00,
2013-11-13 16:40:00,54.5,52.5,30.13,WSW,244,1.0,8.0,93,0.00,,,0.01,meteohub,2013-11-14 00:40:00,
2013-11-13 16:45:00,54.5,52.5,30.13,NNW,346,5.0,6.0,93,0.00,,,0.01,meteohub,2013-11-14 00:45:00,
2013-11-13 16:50:00,54.3,52.3,30.13,NW,304,1.0,8.0,93,0.00,,,0.01,meteohub,2013-11-14 00:50:00,
2013-11-13 16:55:00,54.3,52.7,30.13,NNE,25,2.0,8.0,94,0.00,,,0.01,meteohub,2013-11-14 00:55:00,
2013-11-13 17:00:00,54.3,52.7,30.13,NNE,32,2.0,8.0,94,0.00,,,0.01,meteohub,2013-11-14 01:00:00,
2013-11-13 17:05:00,54.3,52.7,30.13,ESE,112,1.0,7.0,94,0.00,,,0.01,meteohub,2013-11-14 01:05:00,
2013-11-13 17:10:00,54.1,52.5,30.13,NNE,27,1.0,7.0,94,0.00,,,0.01,meteohub,2013-11-14 01:10:00,
2013-11-13 17:15:00,54.1,52.5,30.13,ENE,67,0.0,8.0,94,0.00,,,0.01,meteohub,2013-11-14 01:15:00,
2013-11-13 17:21:00,54.1,52.5,30.13,North,0,4.0,8.0,94,0.00,,,0.01,meteohub,2013-11-14 01:21:00,
2013-11-13 17:26:00,54.1,52.5,30.13,North,11,2.0,6.0,94,0.00,,,0.01,meteohub,2013-11-14 01:26:00,
2013-11-13 17:31:00,54.1,52.5,30.14,NW,312,0.0,6.0,94,0.00,,,0.01,meteohub,2013-11-14 01:31:00,
2013-11-13 17:36:00,54.0,52.3,30.14,NW,317,0.0,8.0,94,0.00,,,0.01,meteohub,2013-11-14 01:36:00,
2013-11-13 17:41:00,54.0,52.3,30.14,NNW,333,0.0,8.0,94,0.00,,,0.01,meteohub,2013-11-14 01:41:00,
2013-11-13 17:46:00,54.0,52.5,30.14,North,8,3.0,8.0,95,0.00,,,0.01,meteohub,2013-11-14 01:46:00,
2013-11-13 17:51:00,54.0,52.3,30.14,North,352,5.0,6.0,94,0.00,,,0.01,meteohub,2013-11-14 01:51:00,
2013-11-13 17:56:00,53.8,52.3,30.14,NNW,348,10.0,10.0,95,0.00,,,0.01,meteohub,2013-11-14 01:56:00,
2013-11-13 18:01:00,53.6,52.2,30.14,North,6,2.0,13.0,95,0.00,,,0.01,meteohub,2013-11-14 02:01:00,
2013-11-13 18:06:00,53.6,52.2,30.14,NNE,26,3.0,13.0,95,0.00,,,0.01,meteohub,2013-11-14 02:06:00,
2013-11-13 18:12:00,53.6,52.2,30.14,NNE,27,0.0,13.0,95,0.00,,,0.01,meteohub,2013-11-14 02:12:00,
2013-11-13 18:17:00,53.6,52.2,30.14,NNW,342,3.0,11.0,95,0.00,,,0.01,meteohub,2013-11-14 02:17:00,
2013-11-13 18:22:00,53.6,52.2,30.13,North,5,4.0,8.0,95,0.00,,,0.01,meteohub,2013-11-14 02:22:00,
2013-11-13 18:27:00,53.4,52.0,30.13,NW,319,0.0,7.0,95,0.00,,,0.01,meteohub,2013-11-14 02:27:00,
2013-11-13 18:32:00,53.4,52.0,30.14,NNE,29,0.0,8.0,95,0.00,,,0.01,meteohub,2013-11-14 02:32:00,
2013-11-13 18:37:00,53.4,52.0,30.14,NNE,19,2.0,8.0,95,0.00,,,0.01,meteohub,2013-11-14 02:37:00,
2013-11-13 18:42:00,53.4,52.0,30.14,NW,318,2.0,6.0,95,0.00,,,0.01,meteohub,2013-11-14 02:42:00,
2013-11-13 18:47:00,53.2,51.8,30.14,North,356,2.0,6.0,95,0.00,,,0.01,meteohub,2013-11-14 02:47:00,
2013-11-13 18:52:00,53.2,51.8,30.14,NE,34,3.0,6.0,95,0.00,,,0.01,meteohub,2013-11-14 02:52:00,
2013-11-13 18:57:00,53.2,51.8,30.14,NNW,328,3.0,6.0,95,0.00,,,0.01,meteohub,2013-11-14 02:57:00,
2013-11-13 19:02:00,53.2,51.8,30.13,North,356,5.0,6.0,95,0.00,,,0.01,meteohub,2013-11-14 03:02:00,
2013-11-13 19:07:00,53.2,51.8,30.14,North,354,1.0,6.0,95,0.00,,,0.01,meteohub,2013-11-14 03:07:00,
2013-11-13 19:12:00,53.2,51.8,30.13,NNW,342,3.0,6.0,95,0.00,,,0.01,meteohub,2013-11-14 03:12:00,
2013-11-13 19:17:00,53.2,52.2,30.13,NNW,336,2.0,7.0,96,0.00,,,0.01,meteohub,2013-11-14 03:17:00,
2013-11-13 19:22:00,53.4,52.3,30.13,NW,307,2.0,7.0,96,0.00,,,0.01,meteohub,2013-11-14 03:22:00,
2013-11-13 19:27:00,53.4,52.3,30.13,North,352,4.0,7.0,96,0.00,,,0.01,meteohub,2013-11-14 03:27:00,
2013-11-13 19:32:00,53.4,52.3,30.12,NE,47,0.0,7.0,96,0.00,,,0.01,meteohub,2013-11-14 03:32:00,
2013-11-13 19:37:00,53.2,52.2,30.12,SW,226,1.0,7.0,96,0.00,,,0.01,meteohub,2013-11-14 03:37:00,
2013-11-13 19:42:00,53.2,52.2,30.12,WSW,258,0.0,6.0,96,0.00,,,0.01,meteohub,2013-11-14 03:42:00,
2013-11-13 19:47:00,53.2,52.2,30.12,NNW,333,2.0,5.0,96,0.00,,,0.01,meteohub,2013-11-14 03:47:00,
2013-11-13 19:52:00,53.2,52.2,30.12,NNW,338,3.0,7.0,96,0.00,,,0.01,meteohub,2013-11-14 03:52:00,
2013-11-13 19:57:00,53.2,52.2,30.12,NNE,27,1.0,7.0,96,0.00,,,0.01,meteohub,2013-11-14 03:57:00,
2013-11-13 20:02:00,53.2,52.2,30.12,North,349,2.0,7.0,96,0.00,,,0.01,meteohub,2013-11-14 04:02:00,
2013-11-13 20:07:00,53.1,52.0,30.12,NW,323,5.0,10.0,96,0.00,,,0.01,meteohub,2013-11-14 04:07:00,
2013-11-13 20:12:00,53.2,52.2,30.12,SSW,205,2.0,10.0,96,0.00,,,0.01,meteohub,2013-11-14 04:12:00,
2013-11-13 20:17:00,53.1,52.0,30.12,NNW,338,3.0,7.0,96,0.00,,,0.01,meteohub,2013-11-14 04:17:00,
2013-11-13 20:22:00,53.2,52.2,30.12,North,5,2.0,8.0,96,0.00,,,0.01,meteohub,2013-11-14 04:22:00,
2013-11-13 20:27:00,53.2,52.2,30.12,NNW,330,0.0,8.0,96,0.00,,,0.01,meteohub,2013-11-14 04:27:00,
2013-11-13 20:32:00,53.2,52.2,30.12,WNW,290,2.0,6.0,96,0.00,,,0.01,meteohub,2013-11-14 04:32:00,
2013-11-13 20:37:00,53.2,52.2,30.12,North,355,0.0,6.0,96,0.00,,,0.01,meteohub,2013-11-14 04:37:00,
2013-11-13 20:42:00,53.2,52.2,30.12,NNE,15,3.0,5.0,96,0.00,,,0.01,meteohub,2013-11-14 04:42:00,
2013-11-13 20:47:00,53.2,52.2,30.12,NNE,19,4.0,5.0,96,0.00,,,0.01,meteohub,2013-11-14 04:47:00,
2013-11-13 20:52:00,53.2,52.2,30.12,North,349,1.0,7.0,96,0.00,,,0.01,meteohub,2013-11-14 04:52:00,
2013-11-13 20:58:00,53.2,52.2,30.12,NNW,335,3.0,7.0,96,0.00,,,0.01,meteohub,2013-11-14 04:58:00,
2013-11-13 21:01:00,53.2,52.2,30.12,NNE,19,9.0,9.0,96,0.00,,,0.01,meteohub,2013-11-14 05:01:00,
2013-11-13 21:02:00,53.2,52.2,30.12,NE,43,5.0,7.0,96,0.00,,,0.01,meteohub,2013-11-14 05:02:00,
2013-11-13 21:03:00,53.2,52.2,30.12,NNW,330,6.0,7.0,96,0.00,,,0.01,meteohub,2013-11-14 05:03:00,
2013-11-13 21:04:00,53.2,52.2,30.12,NNE,29,3.0,7.0,96,0.00,,,0.01,meteohub,2013-11-14 05:04:00,
2013-11-13 21:09:00,53.1,52.0,30.13,NNE,15,5.0,10.0,96,0.00,,,0.01,meteohub,2013-11-14 05:09:00,
2013-11-13 21:14:00,53.1,52.0,30.13,NNE,19,6.0,10.0,96,0.00,,,0.01,meteohub,2013-11-14 05:14:00,
2013-11-13 21:19:00,53.1,52.0,30.13,NNE,13,3.0,10.0,96,0.00,,,0.01,meteohub,2013-11-14 05:19:00,
2013-11-13 21:24:00,53.2,52.2,30.13,North,8,4.0,10.0,96,0.00,,,0.01,meteohub,2013-11-14 05:24:00,
2013-11-13 21:27:00,53.1,52.0,30.13,North,0,10.0,10.0,96,0.00,,,0.01,meteohub,2013-11-14 05:27:00,
2013-11-13 21:32:00,53.1,52.0,30.13,North,359,4.0,10.0,96,0.00,,,0.01,meteohub,2013-11-14 05:32:00,
2013-11-13 21:37:00,53.1,52.0,30.13,NNE,18,2.0,10.0,96,0.00,,,0.01,meteohub,2013-11-14 05:37:00,
2013-11-13 21:42:00,53.1,52.0,30.13,NNE,18,1.0,10.0,96,0.00,,,0.01,meteohub,2013-11-14 05:42:00,
2013-11-13 21:47:00,53.1,52.0,30.13,North,349,2.0,5.0,96,0.00,,,0.01,meteohub,2013-11-14 05:47:00,
2013-11-13 21:52:00,53.1,52.0,30.14,North,359,3.0,5.0,96,0.00,,,0.01,meteohub,2013-11-14 05:52:00,
2013-11-13 21:57:00,53.1,52.0,30.13,South,178,0.0,5.0,96,0.00,,,0.01,meteohub,2013-11-14 05:57:00,
2013-11-13 22:02:00,53.1,52.0,30.14,NW,322,0.0,5.0,96,0.00,,,0.01,meteohub,2013-11-14 06:02:00,
2013-11-13 22:07:00,52.9,51.8,30.14,WNW,298,1.0,5.0,96,0.00,,,0.01,meteohub,2013-11-14 06:07:00,
2013-11-13 22:12:00,52.9,51.8,30.14,NNE,23,5.0,6.0,96,0.00,,,0.01,meteohub,2013-11-14 06:12:00,
2013-11-13 22:17:00,52.9,51.8,30.14,NNE,25,1.0,7.0,96,0.00,,,0.01,meteohub,2013-11-14 06:17:00,
2013-11-13 22:22:00,52.9,51.8,30.14,NNW,346,3.0,7.0,96,0.00,,,0.01,meteohub,2013-11-14 06:22:00,
2013-11-13 22:27:00,52.9,51.8,30.14,NNE,31,2.0,7.0,96,0.00,,,0.01,meteohub,2013-11-14 06:27:00,
2013-11-13 22:32:00,52.9,51.8,30.14,North,5,7.0,7.0,96,0.00,,,0.01,meteohub,2013-11-14 06:32:00,
2013-11-13 22:37:00,52.9,51.8,30.14,WNW,300,4.0,9.0,96,0.00,,,0.01,meteohub,2013-11-14 06:37:00,
2013-11-13 22:42:00,52.7,51.6,30.14,North,4,9.0,9.0,96,0.00,,,0.01,meteohub,2013-11-14 06:42:00,
2013-11-13 22:47:00,52.7,51.6,30.14,NE,46,1.0,9.0,96,0.00,,,0.01,meteohub,2013-11-14 06:47:00,
2013-11-13 22:52:00,52.9,51.8,30.14,North,11,2.0,9.0,96,0.00,,,0.01,meteohub,2013-11-14 06:52:00,
2013-11-13 22:57:00,52.9,51.8,30.14,NNW,346,1.0,9.0,96,0.00,,,0.01,meteohub,2013-11-14 06:57:00,
2013-11-13 23:02:00,52.9,52.0,30.14,NNE,15,5.0,9.0,97,0.00,,,0.01,meteohub,2013-11-14 07:02:00,
2013-11-13 23:07:00,52.9,51.8,30.14,North,355,7.0,9.0,96,0.00,,,0.01,meteohub,2013-11-14 07:07:00,
2013-11-13 23:12:00,52.7,51.6,30.13,NNE,15,9.0,9.0,96,0.00,,,0.01,meteohub,2013-11-14 07:12:00,
2013-11-13 23:17:00,52.5,51.4,30.13,NNW,336,6.0,13.0,96,0.00,,,0.01,meteohub,2013-11-14 07:17:00,
2013-11-13 23:22:00,52.5,51.4,30.12,North,356,5.0,13.0,96,0.00,,,0.01,meteohub,2013-11-14 07:22:00,
2013-11-13 23:27:00,52.5,51.6,30.12,North,354,1.0,13.0,97,0.00,,,0.01,meteohub,2013-11-14 07:27:00,
2013-11-13 23:32:00,52.5,51.6,30.12,NNE,30,0.0,8.0,97,0.00,,,0.01,meteohub,2013-11-14 07:32:00,
2013-11-13 23:37:00,52.5,51.6,30.13,North,0,5.0,6.0,97,0.00,,,0.01,meteohub,2013-11-14 07:37:00,
2013-11-13 23:42:00,52.5,51.6,30.13,NNW,338,2.0,9.0,97,0.00,,,0.01,meteohub,2013-11-14 07:42:00,
2013-11-13 23:47:00,52.5,51.6,30.13,NW,323,0.0,9.0,97,0.00,,,0.01,meteohub,2013-11-14 07:47:00,
2013-11-13 23:52:00,52.5,51.6,30.13,North,9,5.0,9.0,97,0.00,,,0.01,meteohub,2013-11-14 07:52:00,
2013-11-13 23:57:00,52.5,51.6,30.13,NNE,13,0.0,7.0,97,0.00,,,0.01,meteohub,2013-11-14 07:57:00,